| time (UTC) | temp F | wind direction | speed MPH | gust MPH | rain 1hr in | rain 24hr in | rain mn in | humidity % | barometer mb |
| 20260507145029 | 54 | 99 | 3.0 | 6.0 | 0.00 | 0.75 | 0.19 | 76 | 1007.6 |
| 20260507144536 | 54 | 90 | 2.0 | 4.0 | 0.00 | 0.75 | 0.19 | 77 | 1007.8 |
| 20260507144027 | 54 | 90 | 2.0 | 4.0 | 0.00 | 0.75 | 0.19 | 77 | 1007.8 |
| 20260507143526 | 53 | 90 | 2.0 | 4.0 | 0.00 | 0.75 | 0.19 | 77 | 1007.8 |
| 20260507143039 | 53 | 90 | 3.0 | 4.0 | 0.00 | 0.75 | 0.19 | 78 | 1007.8 |
| 20260507142528 | 53 | 90 | 2.0 | 4.0 | 0.00 | 0.75 | 0.19 | 78 | 1008.1 |
| 20260507142026 | 53 | 90 | 2.0 | 6.0 | 0.00 | 0.75 | 0.19 | 78 | 1008.2 |
| 20260507141542 | 53 | 90 | 2.0 | 6.0 | 0.00 | 0.75 | 0.19 | 78 | 1008.3 |
| 20260507141029 | 52 | 90 | 3.0 | 6.0 | 0.00 | 0.75 | 0.19 | 78 | 1008.3 |
| 20260507140529 | 53 | 90 | 3.0 | 6.0 | 0.00 | 0.75 | 0.19 | 79 | 1008.3 |
| 20260507140037 | 53 | 90 | 3.0 | 6.0 | 0.00 | 0.75 | 0.19 | 79 | 1008.2 |
| 20260507135727 | 53 | 86 | 3.0 | 7.0 | 0.00 | 0.75 | 0.19 | 79 | 1008.2 |
| 20260507135657 | 53 | 86 | 3.0 | 7.0 | 0.00 | 0.75 | 0.19 | 79 | 1008.2 |
| 20260507135627 | 53 | 86 | 3.0 | 7.0 | 0.00 | 0.75 | 0.19 | 79 | 1008.2 |
| 20260507135527 | 53 | 86 | 3.0 | 7.0 | 0.00 | 0.75 | 0.19 | 79 | 1008.2 |
| 20260507135027 | 52 | 82 | 2.0 | 7.0 | 0.00 | 0.75 | 0.19 | 79 | 1008.1 |
| 20260507134538 | 52 | 82 | 2.0 | 7.0 | 0.00 | 0.75 | 0.19 | 78 | 1008.3 |
| 20260507134026 | 53 | 327 | 3.0 | 4.0 | 0.00 | 0.75 | 0.19 | 78 | 1008.4 |
| 20260507133527 | 53 | 267 | 0.0 | 4.0 | 0.00 | 0.75 | 0.19 | 78 | 1008.3 |
| 20260507133040 | 52 | 303 | 0.0 | 4.0 | 0.00 | 0.75 | 0.19 | 79 | 1008.3 |
| 20260507132526 | 52 | 238 | 1.0 | 6.0 | 0.00 | 0.75 | 0.19 | 79 | 1008.5 |
| 20260507132028 | 52 | 238 | 1.0 | 7.0 | 0.00 | 0.75 | 0.19 | 80 | 1008.6 |
| 20260507131537 | 52 | 13 | 2.0 | 8.0 | 0.00 | 0.75 | 0.19 | 81 | 1008.3 |
| 20260507131027 | 52 | 0 | 2.0 | 10.0 | 0.00 | 0.75 | 0.19 | 81 | 1008.3 |
| 20260507130527 | 51 | 15 | 4.0 | 10.0 | 0.00 | 0.75 | 0.19 | 81 | 1008.2 |
| 20260507130047 | 51 | 58 | 1.0 | 8.0 | 0.00 | 0.75 | 0.19 | 82 | 1008.5 |
| 20260507125526 | 51 | 301 | 2.0 | 9.0 | 0.00 | 0.75 | 0.19 | 83 | 1008.5 |
| 20260507125026 | 51 | 0 | 1.0 | 10.0 | 0.00 | 0.75 | 0.19 | 84 | 1008.2 |
| 20260507124548 | 50 | 20 | 3.0 | 10.0 | 0.00 | 0.75 | 0.19 | 84 | 1007.8 |
| 20260507124026 | 50 | 21 | 2.0 | 9.0 | 0.00 | 0.75 | 0.19 | 85 | 1007.7 |
| 20260507123527 | 50 | 292 | 3.0 | 11.0 | 0.00 | 0.75 | 0.19 | 86 | 1007.6 |
| 20260507123339 | 49 | 269 | 3.0 | 11.0 | 0.00 | 0.75 | 0.19 | 87 | 1007.5 |
| 20260507123259 | 49 | 269 | 3.0 | 11.0 | 0.00 | 0.75 | 0.19 | 87 | 1007.5 |
| 20260507123158 | 49 | 269 | 3.0 | 11.0 | 0.00 | 0.75 | 0.19 | 87 | 1007.5 |
| 20260507123128 | 49 | 269 | 3.0 | 11.0 | 0.00 | 0.75 | 0.19 | 87 | 1007.5 |
| 20260507123040 | 49 | 269 | 3.0 | 11.0 | 0.00 | 0.75 | 0.19 | 87 | 1007.5 |
| 20260507122526 | 48 | 0 | 0.0 | 5.0 | 0.00 | 0.75 | 0.19 | 87 | 1007.2 |
| 20260507122026 | 48 | 0 | 0.0 | 5.0 | 0.00 | 0.75 | 0.19 | 87 | 1007.4 |
| 20260507121538 | 48 | 352 | 2.0 | 5.0 | 0.00 | 0.75 | 0.19 | 88 | 1007.2 |
| 20260507121028 | 48 | 0 | 0.0 | 5.0 | 0.00 | 0.75 | 0.19 | 88 | 1007.7 |
| 20260507120532 | 47 | 0 | 2.0 | 4.0 | 0.00 | 0.75 | 0.19 | 89 | 1007.7 |
| 20260507120150 | 47 | 290 | 0.0 | 4.0 | 0.00 | 0.75 | 0.19 | 89 | 1007.3 |
| 20260507115527 | 47 | 0 | 0.0 | 4.0 | 0.00 | 0.75 | 0.19 | 89 | 1008.1 |
| 20260507115031 | 47 | 0 | 0.0 | 4.0 | 0.00 | 0.75 | 0.19 | 89 | 1008.2 |
| 20260507114546 | 47 | 0 | 1.0 | 5.0 | 0.00 | 0.75 | 0.19 | 90 | 1007.8 |
| 20260507114026 | 47 | 340 | 2.0 | 5.0 | 0.00 | 0.75 | 0.19 | 90 | 1007.6 |
| 20260507113526 | 47 | 0 | 0.0 | 0.0 | 0.00 | 0.75 | 0.19 | 90 | 1008.1 |
| 20260507113037 | 47 | 0 | 0.0 | 0.0 | 0.00 | 0.75 | 0.19 | 90 | 1008.4 |
| 20260507112527 | 47 | 0 | 0.0 | 0.0 | 0.00 | 0.75 | 0.19 | 90 | 1008.1 |
| 20260507112026 | 46 | 0 | 0.0 | 0.0 | 0.00 | 0.75 | 0.19 | 90 | 1008.0 |
| 20260507111542 | 46 | 0 | 0.0 | 4.0 | 0.00 | 0.75 | 0.19 | 91 | 1008.2 |
| 20260507111026 | 46 | 0 | 0.0 | 5.0 | 0.00 | 0.75 | 0.19 | 91 | 1008.1 |
| 20260507110527 | 46 | 293 | 1.0 | 5.0 | 0.00 | 0.75 | 0.19 | 91 | 1007.8 |
| 20260507110057 | 46 | 0 | 0.0 | 5.0 | 0.00 | 0.75 | 0.19 | 91 | 1007.7 |
| 20260507105526 | 46 | 0 | 0.0 | 7.0 | 0.00 | 0.75 | 0.19 | 91 | 1007.6 |
| 20260507105027 | 46 | 242 | 1.0 | 7.0 | 0.00 | 0.75 | 0.19 | 91 | 1008.2 |
| 20260507104545 | 46 | 242 | 2.0 | 6.0 | 0.00 | 0.75 | 0.19 | 91 | 1007.9 |
| 20260507104029 | 46 | 0 | 0.0 | 3.0 | 0.00 | 0.75 | 0.19 | 91 | 1007.1 |
| 20260507103527 | 46 | 0 | 0.0 | 3.0 | 0.00 | 0.75 | 0.19 | 91 | 1007.1 |
| 20260507103036 | 46 | 268 | 0.0 | 7.0 | 0.00 | 0.75 | 0.19 | 91 | 1007.4 |
| 20260507102527 | 46 | 0 | 1.0 | 7.0 | 0.00 | 0.75 | 0.19 | 91 | 1007.3 |
| 20260507102029 | 46 | 0 | 0.0 | 3.0 | 0.00 | 0.75 | 0.19 | 91 | 1007.2 |
| 20260507101543 | 46 | 279 | 0.0 | 3.0 | 0.00 | 0.75 | 0.19 | 91 | 1006.9 |
| 20260507101027 | 47 | 0 | 0.0 | 4.0 | 0.00 | 0.75 | 0.19 | 92 | 1006.9 |
| 20260507100529 | 47 | 0 | 0.0 | 8.0 | 0.00 | 0.75 | 0.19 | 92 | 1006.6 |
| 20260507100044 | 46 | 279 | 2.0 | 8.0 | 0.00 | 0.75 | 0.19 | 91 | 1007.1 |
| 20260507095529 | 47 | 0 | 0.0 | 4.0 | 0.00 | 0.75 | 0.19 | 92 | 1007.1 |
| 20260507095029 | 47 | 0 | 0.0 | 4.0 | 0.00 | 0.75 | 0.19 | 92 | 1006.9 |
| 20260507094540 | 46 | 0 | 0.0 | 2.0 | 0.00 | 0.75 | 0.19 | 92 | 1006.9 |
| 20260507094029 | 47 | 0 | 0.0 | 2.0 | 0.00 | 0.75 | 0.19 | 92 | 1006.7 |
| 20260507093528 | 47 | 90 | 0.0 | 2.0 | 0.00 | 0.75 | 0.19 | 92 | 1006.5 |
| 20260507093039 | 47 | 0 | 0.0 | 0.0 | 0.00 | 0.75 | 0.19 | 92 | 1006.6 |
| 20260507092529 | 47 | 0 | 0.0 | 0.0 | 0.00 | 0.75 | 0.19 | 92 | 1006.9 |
| 20260507092028 | 47 | 0 | 0.0 | 0.0 | 0.00 | 0.75 | 0.19 | 92 | 1007.1 |
| 20260507091541 | 47 | 0 | 0.0 | 0.0 | 0.00 | 0.75 | 0.19 | 92 | 1007.1 |
| 20260507091027 | 47 | 0 | 0.0 | 0.0 | 0.00 | 0.75 | 0.19 | 92 | 1007.1 |
| 20260507090530 | 47 | 0 | 0.0 | 4.0 | 0.00 | 0.75 | 0.19 | 92 | 1007.1 |
| 20260507090037 | 47 | 0 | 0.0 | 4.0 | 0.00 | 0.75 | 0.19 | 92 | 1007.0 |
| 20260507085527 | 47 | 217 | 0.0 | 4.0 | 0.00 | 0.75 | 0.19 | 92 | 1007.1 |
| 20260507085027 | 47 | 0 | 1.0 | 6.0 | 0.00 | 0.75 | 0.19 | 92 | 1006.8 |
| 20260507084541 | 47 | 197 | 0.0 | 7.0 | 0.00 | 0.75 | 0.19 | 92 | 1006.5 |
| 20260507084027 | 47 | 0 | 0.0 | 7.0 | 0.00 | 0.75 | 0.19 | 92 | 1006.3 |
| 20260507083527 | 47 | 19 | 1.0 | 6.0 | 0.00 | 0.75 | 0.19 | 92 | 1006.3 |
| 20260507083040 | 47 | 0 | 0.0 | 6.0 | 0.00 | 0.75 | 0.19 | 92 | 1006.2 |
| 20260507082526 | 47 | 321 | 1.0 | 7.0 | 0.00 | 0.75 | 0.19 | 92 | 1006.1 |
| 20260507082030 | 47 | 0 | 1.0 | 7.0 | 0.00 | 0.75 | 0.19 | 92 | 1006.2 |
| 20260507081537 | 47 | 0 | 0.0 | 7.0 | 0.01 | 0.75 | 0.19 | 92 | 1006.2 |
| 20260507081028 | 47 | 274 | 1.0 | 7.0 | 0.01 | 0.75 | 0.19 | 92 | 1006.4 |
| 20260507080527 | 47 | 0 | 1.0 | 7.0 | 0.01 | 0.75 | 0.19 | 92 | 1006.3 |
| 20260507080038 | 47 | 246 | 1.0 | 5.0 | 0.01 | 0.75 | 0.19 | 92 | 1006.1 |
| 20260507075526 | 47 | 0 | 1.0 | 8.0 | 0.01 | 0.75 | 0.19 | 92 | 1006.2 |
| 20260507075026 | 47 | 248 | 0.0 | 8.0 | 0.01 | 0.75 | 0.19 | 92 | 1005.9 |
| 20260507074537 | 47 | 279 | 2.0 | 8.0 | 0.01 | 0.75 | 0.19 | 92 | 1005.9 |
| 20260507074026 | 48 | 227 | 1.0 | 9.0 | 0.01 | 0.75 | 0.19 | 92 | 1005.9 |
| 20260507073526 | 48 | 0 | 2.0 | 9.0 | 0.01 | 0.75 | 0.19 | 92 | 1006.0 |
| 20260507073045 | 48 | 225 | 0.0 | 7.0 | 0.01 | 0.75 | 0.19 | 92 | 1005.7 |
| 20260507072527 | 48 | 0 | 0.0 | 7.0 | 0.01 | 0.75 | 0.19 | 92 | 1005.8 |
| 20260507072026 | 48 | 265 | 1.0 | 7.0 | 0.01 | 0.75 | 0.19 | 92 | 1005.9 |
| 20260507071539 | 48 | 238 | 1.0 | 7.0 | 0.00 | 0.74 | 0.18 | 92 | 1005.8 |
| 20260507071027 | 48 | 0 | 1.0 | 7.0 | 0.01 | 0.74 | 0.18 | 92 | 1005.6 |
| 20260507070527 | 48 | 196 | 1.0 | 6.0 | 0.01 | 0.74 | 0.18 | 92 | 1005.5 |
| 20260507070043 | 49 | 288 | 0.0 | 7.0 | 0.03 | 0.74 | 0.18 | 92 | 1005.6 |
| 20260507065526 | 49 | 243 | 1.0 | 7.0 | 0.05 | 0.74 | 0.18 | 92 | 1005.5 |
| 20260507065026 | 49 | 0 | 1.0 | 6.0 | 0.10 | 0.74 | 0.18 | 92 | 1005.5 |
| 20260507064537 | 49 | 0 | 1.0 | 6.0 | 0.13 | 0.74 | 0.18 | 92 | 1005.6 |
| 20260507064026 | 49 | 273 | 0.0 | 6.0 | 0.17 | 0.74 | 0.18 | 92 | 1005.8 |
| 20260507063527 | 49 | 0 | 0.0 | 2.0 | 0.17 | 0.74 | 0.18 | 92 | 1005.7 |
| 20260507063051 | 49 | 0 | 0.0 | 4.0 | 0.17 | 0.74 | 0.18 | 92 | 1005.5 |
| 20260507062526 | 49 | 0 | 0.0 | 6.0 | 0.18 | 0.74 | 0.18 | 92 | 1005.3 |
| 20260507062026 | 49 | 0 | 0.0 | 6.0 | 0.18 | 0.74 | 0.18 | 92 | 1005.4 |
| 20260507061546 | 49 | 273 | 0.0 | 4.0 | 0.18 | 0.74 | 0.18 | 92 | 1005.5 |
| 20260507061026 | 49 | 0 | 0.0 | 4.0 | 0.17 | 0.73 | 0.17 | 92 | 1005.3 |
| 20260507060527 | 49 | 0 | 0.0 | 8.0 | 0.17 | 0.73 | 0.17 | 92 | 1005.4 |
| 20260507060045 | 49 | 360 | 1.0 | 11.0 | 0.15 | 0.71 | 0.15 | 92 | 1005.3 |
| 20260507055527 | 49 | 281 | 4.0 | 11.0 | 0.12 | 0.69 | 0.12 | 92 | 1006.3 |
| 20260507055026 | 49 | 217 | 1.0 | 6.0 | 0.08 | 0.65 | 0.08 | 92 | 1006.6 |
| 20260507054541 | 49 | 212 | 0.0 | 7.0 | 0.05 | 0.62 | 0.05 | 92 | 1005.6 |
| 20260507054028 | 49 | 244 | 1.0 | 7.0 | 0.01 | 0.58 | 0.01 | 92 | 1005.4 |
| 20260507053527 | 49 | 225 | 0.0 | 6.0 | 0.01 | 0.58 | 0.01 | 92 | 1005.3 |
| 20260507053039 | 50 | 230 | 2.0 | 6.0 | 0.01 | 0.58 | 0.01 | 92 | 1005.2 |
| 20260507052527 | 50 | 174 | 0.0 | 8.0 | 0.00 | 0.57 | 0.00 | 92 | 1005.2 |
| 20260507052027 | 50 | 0 | 1.0 | 10.0 | 0.00 | 0.57 | 0.00 | 92 | 1005.3 |
| 20260507051537 | 50 | 200 | 2.0 | 10.0 | 0.00 | 0.57 | 0.00 | 92 | 1005.5 |
| 20260507051028 | 50 | 277 | 2.0 | 10.0 | 0.00 | 0.57 | 0.00 | 92 | 1005.5 |
| 20260507050527 | 50 | 271 | 2.0 | 8.0 | 0.00 | 0.57 | 0.00 | 92 | 1005.5 |
| 20260507050043 | 50 | 0 | 0.0 | 8.0 | 0.00 | 0.57 | 0.00 | 92 | 1005.5 |
| 20260507045527 | 50 | 0 | 0.0 | 2.0 | 0.00 | 0.57 | 0.00 | 92 | 1005.3 |
| 20260507045027 | 50 | 0 | 0.0 | 2.0 | 0.00 | 0.57 | 0.00 | 92 | 1005.4 |
| 20260507044542 | 50 | 0 | 0.0 | 2.0 | 0.00 | 0.57 | 0.00 | 92 | 1005.4 |
| 20260507044026 | 50 | 0 | 0.0 | 0.0 | 0.00 | 0.57 | 0.00 | 92 | 1005.4 |
| 20260507043528 | 50 | 0 | 0.0 | 6.0 | 0.00 | 0.57 | 0.00 | 92 | 1005.3 |
| 20260507043038 | 50 | 0 | 0.0 | 6.0 | 0.01 | 0.57 | 0.00 | 92 | 1005.3 |
| 20260507042527 | 50 | 192 | 0.0 | 7.0 | 0.01 | 0.57 | 0.00 | 92 | 1005.6 |
| 20260507042026 | 50 | 0 | 0.0 | 7.0 | 0.01 | 0.57 | 0.00 | 92 | 1005.5 |
| 20260507041537 | 50 | 250 | 0.0 | 7.0 | 0.01 | 0.57 | 0.00 | 92 | 1005.8 |
| 20260507041026 | 50 | 248 | 0.0 | 7.0 | 0.01 | 0.57 | 0.00 | 92 | 1005.9 |
| 20260507040527 | 50 | 239 | 1.0 | 9.0 | 0.01 | 0.57 | 0.00 | 92 | 1006.0 |
| 20260507040036 | 50 | 268 | 0.0 | 9.0 | 0.01 | 0.57 | 0.00 | 92 | 1006.0 |
| 20260507035527 | 50 | 0 | 2.0 | 13.0 | 0.02 | 0.57 | 0.57 | 92 | 1006.0 |
| 20260507035029 | 50 | 0 | 1.0 | 13.0 | 0.03 | 0.57 | 0.57 | 92 | 1006.1 |
| 20260507034542 | 50 | 230 | 2.0 | 10.0 | 0.04 | 0.57 | 0.57 | 92 | 1006.1 |
| 20260507034027 | 50 | 190 | 1.0 | 11.0 | 0.05 | 0.57 | 0.57 | 92 | 1006.0 |
| 20260507033531 | 50 | 0 | 2.0 | 11.0 | 0.07 | 0.57 | 0.57 | 92 | 1006.0 |
| 20260507033042 | 50 | 253 | 1.0 | 8.0 | 0.07 | 0.56 | 0.56 | 92 | 1006.1 |
| 20260507032527 | 49 | 0 | 0.0 | 5.0 | 0.08 | 0.56 | 0.56 | 92 | 1006.1 |
| 20260507032026 | 49 | 220 | 0.0 | 4.0 | 0.09 | 0.56 | 0.56 | 92 | 1006.1 |
| 20260507031537 | 49 | 278 | 0.0 | 4.0 | 0.10 | 0.56 | 0.56 | 92 | 1006.3 |
| 20260507031028 | 49 | 0 | 0.0 | 9.0 | 0.10 | 0.56 | 0.56 | 92 | 1006.3 |
| 20260507030529 | 49 | 250 | 0.0 | 9.0 | 0.11 | 0.56 | 0.56 | 92 | 1006.4 |
| 20260507030035 | 49 | 252 | 1.0 | 9.0 | 0.12 | 0.56 | 0.56 | 92 | 1006.4 |
| 20260507025525 | 49 | 225 | 1.0 | 8.0 | 0.13 | 0.55 | 0.55 | 92 | 1006.5 |
| 20260507025027 | 49 | 230 | 1.0 | 9.0 | 0.13 | 0.54 | 0.54 | 91 | 1006.4 |
| 20260507024545 | 49 | 0 | 2.0 | 10.0 | 0.13 | 0.52 | 0.52 | 92 | 1006.5 |
| 20260507024027 | 49 | 167 | 1.0 | 10.0 | 0.14 | 0.52 | 0.52 | 92 | 1006.7 |
| 20260507023527 | 49 | 254 | 2.0 | 14.0 | 0.13 | 0.50 | 0.50 | 92 | 1006.8 |
| 20260507023040 | 50 | 294 | 2.0 | 14.0 | 0.13 | 0.49 | 0.49 | 91 | 1006.8 |
| 20260507022527 | 50 | 208 | 4.0 | 14.0 | 0.14 | 0.48 | 0.48 | 91 | 1006.9 |
| 20260507022027 | 50 | 275 | 2.0 | 14.0 | 0.12 | 0.46 | 0.46 | 91 | 1006.9 |
| 20260507021539 | 50 | 82 | 3.0 | 13.0 | 0.13 | 0.46 | 0.46 | 91 | 1006.8 |
| 20260507021029 | 50 | 219 | 3.0 | 13.0 | 0.13 | 0.45 | 0.45 | 91 | 1006.9 |
| 20260507020527 | 50 | 247 | 3.0 | 13.0 | 0.14 | 0.45 | 0.45 | 91 | 1006.9 |
| 20260507020043 | 49 | 230 | 1.0 | 17.0 | 0.14 | 0.44 | 0.44 | 91 | 1007.0 |
| 20260507015528 | 49 | 174 | 4.0 | 17.0 | 0.12 | 0.42 | 0.42 | 91 | 1007.2 |
| 20260507015026 | 49 | 39 | 3.0 | 11.0 | 0.12 | 0.41 | 0.41 | 91 | 1007.3 |
| 20260507014538 | 49 | 236 | 3.0 | 11.0 | 0.12 | 0.40 | 0.40 | 91 | 1007.5 |
| 20260507014026 | 49 | 300 | 3.0 | 12.0 | 0.10 | 0.38 | 0.38 | 91 | 1007.7 |
| 20260507013526 | 49 | 235 | 2.0 | 13.0 | 0.10 | 0.37 | 0.37 | 91 | 1007.9 |
| 20260507013048 | 49 | 250 | 2.0 | 16.0 | 0.10 | 0.35 | 0.35 | 91 | 1008.0 |
| 20260507012526 | 49 | 88 | 3.0 | 16.0 | 0.10 | 0.34 | 0.34 | 91 | 1008.1 |
| 20260507012027 | 49 | 171 | 2.0 | 9.0 | 0.11 | 0.34 | 0.34 | 91 | 1008.1 |
| 20260507011544 | 49 | 263 | 2.0 | 10.0 | 0.11 | 0.33 | 0.33 | 91 | 1008.1 |
| 20260507011027 | 49 | 0 | 1.0 | 11.0 | 0.12 | 0.32 | 0.32 | 91 | 1008.2 |
| 20260507010530 | 49 | 132 | 3.0 | 13.0 | 0.12 | 0.31 | 0.31 | 91 | 1008.3 |
| 20260507010052 | 49 | 0 | 2.0 | 13.0 | 0.12 | 0.30 | 0.30 | 91 | 1008.4 |
| 20260507005526 | 49 | 194 | 2.0 | 13.0 | 0.13 | 0.30 | 0.30 | 91 | 1008.5 |
| 20260507005026 | 49 | 130 | 2.0 | 10.0 | 0.14 | 0.29 | 0.29 | 91 | 1008.5 |
| 20260507004539 | 49 | 286 | 2.0 | 9.0 | 0.16 | 0.28 | 0.28 | 91 | 1008.5 |
| 20260507004028 | 49 | 288 | 1.0 | 9.0 | 0.16 | 0.28 | 0.28 | 91 | 1008.7 |
| 20260507003527 | 49 | 227 | 1.0 | 9.0 | 0.15 | 0.26 | 0.26 | 91 | 1008.9 |
| 20260507003037 | 49 | 229 | 1.0 | 7.0 | 0.15 | 0.25 | 0.25 | 91 | 1008.9 |
| 20260507002528 | 49 | 0 | 2.0 | 9.0 | 0.16 | 0.24 | 0.24 | 91 | 1008.9 |
| 20260507002027 | 49 | 252 | 1.0 | 10.0 | 0.15 | 0.23 | 0.23 | 91 | 1009.0 |
| 20260507001537 | 49 | 0 | 1.0 | 10.0 | 0.14 | 0.22 | 0.22 | 91 | 1009.2 |
| 20260507001028 | 49 | 225 | 1.0 | 10.0 | 0.13 | 0.20 | 0.20 | 91 | 1009.2 |
| 20260507000526 | 49 | 86 | 2.0 | 11.0 | 0.12 | 0.19 | 0.19 | 91 | 1009.1 |
| 20260507000037 | 49 | 0 | 1.0 | 11.0 | 0.11 | 0.18 | 0.18 | 91 | 1009.1 |
| 20260506235528 | 49 | 260 | 1.0 | 6.0 | 0.10 | 0.17 | 0.17 | 90 | 1009.3 |
| 20260506235028 | 49 | 311 | 1.0 | 5.0 | 0.07 | 0.14 | 0.14 | 90 | 1009.2 |
| 20260506234539 | 49 | 0 | 0.0 | 4.0 | 0.06 | 0.12 | 0.12 | 90 | 1009.5 |
| 20260506234027 | 49 | 134 | 0.0 | 6.0 | 0.06 | 0.12 | 0.12 | 90 | 1009.2 |
| 20260506233526 | 49 | 130 | 0.0 | 6.0 | 0.05 | 0.11 | 0.11 | 90 | 1009.3 |
| 20260506233054 | 49 | 0 | 1.0 | 6.0 | 0.03 | 0.09 | 0.09 | 90 | 1009.4 |
| 20260506232529 | 49 | 234 | 0.0 | 11.0 | 0.03 | 0.08 | 0.08 | 90 | 1009.4 |
| 20260506232027 | 49 | 231 | 2.0 | 11.0 | 0.03 | 0.08 | 0.08 | 90 | 1009.4 |
| 20260506231540 | 50 | 262 | 2.0 | 9.0 | 0.04 | 0.08 | 0.08 | 90 | 1009.7 |
| 20260506231027 | 50 | 245 | 1.0 | 13.0 | 0.03 | 0.07 | 0.07 | 90 | 1009.7 |
| 20260506230528 | 50 | 244 | 4.0 | 13.0 | 0.04 | 0.07 | 0.07 | 90 | 1009.4 |
| 20260506230038 | 50 | 216 | 2.0 | 14.0 | 0.04 | 0.07 | 0.07 | 90 | 1009.4 |
| 20260506225529 | 49 | 82 | 2.0 | 14.0 | 0.05 | 0.07 | 0.07 | 90 | 1009.4 |
| 20260506225028 | 49 | 0 | 1.0 | 17.0 | 0.05 | 0.07 | 0.07 | 90 | 1009.7 |
| 20260506224537 | 49 | 240 | 2.0 | 17.0 | 0.04 | 0.06 | 0.06 | 90 | 1009.5 |
| 20260506224031 | 49 | 242 | 4.0 | 17.0 | 0.04 | 0.06 | 0.06 | 89 | 1009.7 |
| 20260506223531 | 49 | 252 | 2.0 | 10.0 | 0.04 | 0.06 | 0.06 | 89 | 1010.0 |
| 20260506223038 | 49 | 45 | 1.0 | 9.0 | 0.05 | 0.06 | 0.06 | 89 | 1009.6 |
| 20260506222527 | 49 | 0 | 0.0 | 5.0 | 0.04 | 0.05 | 0.05 | 89 | 1009.6 |
| 20260506222030 | 49 | 0 | 0.0 | 8.0 | 0.04 | 0.05 | 0.05 | 89 | 1009.9 |
| 20260506221539 | 49 | 0 | 0.0 | 8.0 | 0.03 | 0.04 | 0.04 | 89 | 1010.1 |
| 20260506221026 | 50 | 253 | 1.0 | 8.0 | 0.03 | 0.04 | 0.04 | 89 | 1010.3 |
| 20260506220527 | 50 | 0 | 2.0 | 8.0 | 0.02 | 0.03 | 0.03 | 89 | 1010.3 |
| 20260506220041 | 50 | 0 | 0.0 | 4.0 | 0.02 | 0.03 | 0.03 | 88 | 1010.7 |
| 20260506215526 | 50 | 120 | 0.0 | 4.0 | 0.01 | 0.02 | 0.02 | 88 | 1010.5 |
| 20260506215026 | 50 | 0 | 0.0 | 6.0 | 0.01 | 0.02 | 0.02 | 88 | 1010.6 |
| 20260506214538 | 50 | 0 | 0.0 | 6.0 | 0.01 | 0.02 | 0.02 | 88 | 1010.6 |
| 20260506214027 | 50 | 0 | 1.0 | 4.0 | 0.01 | 0.02 | 0.02 | 87 | 1010.9 |
| 20260506213526 | 51 | 0 | 1.0 | 4.0 | 0.01 | 0.02 | 0.02 | 87 | 1010.8 |
| 20260506213036 | 51 | 0 | 1.0 | 4.0 | 0.00 | 0.01 | 0.01 | 86 | 1010.7 |
| 20260506212527 | 52 | 108 | 1.0 | 8.0 | 0.00 | 0.01 | 0.01 | 87 | 1010.9 |
| 20260506212027 | 53 | 0 | 0.0 | 16.0 | 0.00 | 0.01 | 0.01 | 87 | 1010.7 |
| 20260506211536 | 53 | 213 | 2.0 | 16.0 | 0.00 | 0.01 | 0.01 | 87 | 1010.5 |
| 20260506211027 | 53 | 248 | 3.0 | 16.0 | 0.00 | 0.01 | 0.01 | 87 | 1011.0 |
| 20260506210527 | 53 | 219 | 3.0 | 9.0 | 0.00 | 0.01 | 0.01 | 87 | 1011.1 |
| 20260506210044 | 53 | 223 | 1.0 | 9.0 | 0.00 | 0.01 | 0.01 | 87 | 1011.1 |
| 20260506205527 | 53 | 200 | 2.0 | 9.0 | 0.00 | 0.01 | 0.01 | 87 | 1011.0 |
| 20260506205027 | 53 | 76 | 1.0 | 11.0 | 0.00 | 0.01 | 0.01 | 86 | 1011.1 |
| 20260506204540 | 53 | 268 | 2.0 | 11.0 | 0.00 | 0.01 | 0.01 | 87 | 1011.1 |
| 20260506204026 | 52 | 258 | 0.0 | 7.0 | 0.00 | 0.01 | 0.01 | 86 | 1010.9 |
| 20260506203529 | 52 | 129 | 1.0 | 6.0 | 0.00 | 0.01 | 0.01 | 86 | 1011.0 |
| 20260506203039 | 52 | 198 | 0.0 | 5.0 | 0.00 | 0.01 | 0.01 | 86 | 1011.0 |
| 20260506202528 | 52 | 0 | 1.0 | 8.0 | 0.00 | 0.01 | 0.01 | 86 | 1011.1 |
| 20260506202027 | 52 | 102 | 1.0 | 8.0 | 0.00 | 0.01 | 0.01 | 86 | 1010.7 |
| 20260506201547 | 52 | 0 | 1.0 | 6.0 | 0.00 | 0.01 | 0.01 | 86 | 1010.6 |
| 20260506201027 | 52 | 232 | 1.0 | 6.0 | 0.00 | 0.01 | 0.01 | 86 | 1010.9 |
| 20260506200527 | 52 | 229 | 1.0 | 6.0 | 0.00 | 0.01 | 0.01 | 86 | 1010.8 |
| 20260506200042 | 52 | 0 | 1.0 | 5.0 | 0.00 | 0.01 | 0.01 | 86 | 1010.4 |
| 20260506195527 | 52 | 125 | 0.0 | 7.0 | 0.00 | 0.01 | 0.01 | 86 | 1010.7 |
| 20260506195031 | 52 | 0 | 0.0 | 7.0 | 0.00 | 0.01 | 0.01 | 86 | 1010.7 |
| 20260506194547 | 52 | 0 | 2.0 | 8.0 | 0.00 | 0.01 | 0.01 | 85 | 1010.8 |
| 20260506194027 | 52 | 144 | 1.0 | 8.0 | 0.00 | 0.01 | 0.01 | 85 | 1010.9 |
| 20260506193526 | 52 | 104 | 3.0 | 8.0 | 0.00 | 0.01 | 0.01 | 85 | 1011.0 |
| 20260506193042 | 52 | 0 | 1.0 | 5.0 | 0.00 | 0.01 | 0.01 | 85 | 1011.3 |
| 20260506192531 | 53 | 90 | 1.0 | 6.0 | 0.00 | 0.01 | 0.01 | 85 | 1011.0 |
| 20260506192027 | 53 | 78 | 2.0 | 6.0 | 0.00 | 0.01 | 0.01 | 86 | 1011.1 |
| 20260506191538 | 53 | 253 | 0.0 | 5.0 | 0.00 | 0.01 | 0.01 | 86 | 1011.3 |
| 20260506191028 | 53 | 0 | 1.0 | 5.0 | 0.00 | 0.01 | 0.01 | 86 | 1011.4 |
| 20260506190528 | 52 | 0 | 1.0 | 5.0 | 0.00 | 0.01 | 0.01 | 86 | 1011.3 |
| 20260506190037 | 52 | 0 | 0.0 | 7.0 | 0.00 | 0.01 | 0.01 | 87 | 1011.5 |
| 20260506185527 | 51 | 0 | 1.0 | 7.0 | 0.00 | 0.01 | 0.01 | 86 | 1011.5 |
| 20260506185027 | 51 | 180 | 1.0 | 4.0 | 0.00 | 0.01 | 0.01 | 86 | 1011.4 |
| 20260506184544 | 51 | 51 | 1.0 | 9.0 | 0.00 | 0.01 | 0.01 | 86 | 1011.4 |
| 20260506184032 | 51 | 170 | 0.0 | 9.0 | 0.00 | 0.01 | 0.01 | 86 | 1011.4 |
| 20260506183527 | 51 | 141 | 1.0 | 6.0 | 0.00 | 0.01 | 0.01 | 86 | 1011.6 |
| 20260506183039 | 51 | 290 | 1.0 | 6.0 | 0.00 | 0.01 | 0.01 | 86 | 1011.6 |
| 20260506182526 | 51 | 0 | 0.0 | 6.0 | 0.00 | 0.01 | 0.01 | 86 | 1011.6 |
| 20260506182026 | 51 | 148 | 0.0 | 4.0 | 0.00 | 0.01 | 0.01 | 85 | 1011.6 |
| 20260506181537 | 52 | 61 | 0.0 | 4.0 | 0.00 | 0.01 | 0.01 | 85 | 1011.9 |
| 20260506181031 | 52 | 86 | 1.0 | 10.0 | 0.00 | 0.01 | 0.01 | 85 | 1011.7 |
| 20260506180653 | 52 | 0 | 0.0 | 10.0 | 0.00 | 0.01 | 0.01 | 85 | 1011.9 |
| 20260506180041 | 52 | 0 | 2.0 | 10.0 | 0.00 | 0.01 | 0.01 | 85 | 1011.9 |
| 20260506175529 | 52 | 284 | 1.0 | 6.0 | 0.00 | 0.01 | 0.01 | 85 | 1011.9 |
| 20260506175027 | 53 | 0 | 1.0 | 6.0 | 0.00 | 0.01 | 0.01 | 85 | 1012.0 |
| 20260506174536 | 53 | 0 | 1.0 | 6.0 | 0.00 | 0.01 | 0.01 | 84 | 1012.1 |
| 20260506174027 | 53 | 113 | 1.0 | 7.0 | 0.00 | 0.01 | 0.01 | 84 | 1012.0 |
| 20260506173527 | 54 | 153 | 1.0 | 7.0 | 0.00 | 0.01 | 0.01 | 85 | 1012.2 |
| 20260506173045 | 54 | 0 | 1.0 | 8.0 | 0.00 | 0.01 | 0.01 | 84 | 1012.3 |
| 20260506172527 | 54 | 117 | 1.0 | 8.0 | 0.00 | 0.01 | 0.01 | 85 | 1012.3 |
| 20260506172028 | 54 | 118 | 2.0 | 9.0 | 0.00 | 0.01 | 0.01 | 85 | 1012.3 |
| 20260506171548 | 54 | 355 | 2.0 | 9.0 | 0.00 | 0.01 | 0.01 | 85 | 1012.1 |
| 20260506171027 | 53 | 92 | 1.0 | 7.0 | 0.00 | 0.01 | 0.01 | 85 | 1012.2 |
| 20260506170526 | 53 | 225 | 1.0 | 7.0 | 0.00 | 0.01 | 0.01 | 85 | 1012.1 |
| 20260506170039 | 53 | 198 | 1.0 | 6.0 | 0.00 | 0.01 | 0.01 | 85 | 1012.2 |
| 20260506165529 | 53 | 0 | 1.0 | 8.0 | 0.00 | 0.01 | 0.01 | 85 | 1012.2 |
| 20260506165027 | 53 | 76 | 1.0 | 8.0 | 0.00 | 0.01 | 0.01 | 85 | 1012.4 |
| 20260506164550 | 53 | 153 | 1.0 | 9.0 | 0.00 | 0.01 | 0.01 | 85 | 1012.6 |
| 20260506164026 | 53 | 69 | 1.0 | 9.0 | 0.00 | 0.01 | 0.01 | 85 | 1012.6 |
| 20260506163527 | 53 | 288 | 2.0 | 8.0 | 0.00 | 0.01 | 0.01 | 85 | 1012.7 |
| 20260506163038 | 53 | 160 | 1.0 | 8.0 | 0.00 | 0.01 | 0.01 | 86 | 1012.8 |
| 20260506162526 | 52 | 123 | 1.0 | 7.0 | 0.00 | 0.01 | 0.01 | 86 | 1012.5 |
| 20260506162030 | 52 | 0 | 1.0 | 7.0 | 0.00 | 0.01 | 0.01 | 86 | 1012.9 |
| 20260506161539 | 52 | 133 | 1.0 | 7.0 | 0.00 | 0.01 | 0.01 | 86 | 1013.1 |
| 20260506161030 | 52 | 103 | 1.0 | 7.0 | 0.00 | 0.01 | 0.01 | 86 | 1012.9 |
| 20260506160527 | 52 | 98 | 1.0 | 10.0 | 0.00 | 0.01 | 0.01 | 86 | 1013.0 |
| 20260506160046 | 52 | 157 | 1.0 | 10.0 | 0.00 | 0.01 | 0.01 | 86 | 1012.9 |
| 20260506155526 | 52 | 95 | 2.0 | 11.0 | 0.00 | 0.01 | 0.01 | 86 | 1013.0 |
| 20260506155027 | 52 | 86 | 1.0 | 12.0 | 0.00 | 0.01 | 0.01 | 86 | 1012.9 |
| 20260506154550 | 52 | 85 | 2.0 | 12.0 | 0.00 | 0.01 | 0.01 | 86 | 1012.9 |
| 20260506154027 | 52 | 231 | 1.0 | 9.0 | 0.00 | 0.01 | 0.01 | 86 | 1012.7 |
| 20260506153527 | 52 | 0 | 1.0 | 9.0 | 0.00 | 0.01 | 0.01 | 86 | 1012.6 |
| 20260506153037 | 52 | 68 | 2.0 | 8.0 | 0.00 | 0.01 | 0.01 | 86 | 1012.6 |
| 20260506152527 | 52 | 0 | 2.0 | 8.0 | 0.00 | 0.01 | 0.01 | 86 | 1012.7 |
| 20260506152026 | 52 | 0 | 1.0 | 5.0 | 0.00 | 0.01 | 0.01 | 86 | 1012.8 |
| 20260506151536 | 52 | 109 | 1.0 | 4.0 | 0.00 | 0.01 | 0.01 | 87 | 1013.0 |
| 20260506151027 | 52 | 34 | 1.0 | 6.0 | 0.00 | 0.01 | 0.01 | 87 | 1013.1 |
| 20260506150527 | 52 | 28 | 0.0 | 8.0 | 0.00 | 0.01 | 0.01 | 87 | 1013.0 |
| 20260506150039 | 51 | 343 | 1.0 | 8.0 | 0.00 | 0.01 | 0.01 | 87 | 1013.2 |
| 20260506145527 | 51 | 39 | 1.0 | 7.0 | 0.00 | 0.01 | 0.01 | 87 | 1013.1 |